Regional Weather Roundup
Issued by NWS

Home | Current Version | Previous Version | Text Only | Print | Product List | Glossary Off
Versions: 1 2 3 4 5 6 7 8 9 10 11 12 13 14 15 16 17 18 19 20 21 22 23 24 25 26 27 28 29 30 31 32 33 34 35 36 37 38 39 40 41 42 43 44 45 46 47 48 49 50

000
ASUS45 KCYS 071610
RWRWY

WYOMING REGIONAL WEATHER ROUNDUP
NATIONAL WEATHER SERVICE CHEYENNE WY
900 AM MST WED DEC 07 2016

NOTE:  "FAIR" INDICATES FEW OR NO CLOUDS BELOW 12,000 FEET
WITH NO SIGNIFICANT WEATHER AND/OR OBSTRUCTIONS TO VISIBILITY.

WYZ001-071700-
YELLOWSTONE NATIONAL PARK

CITY           SKY/WX    TMP DP  RH WIND       PRES   REMARKS
LK YELLOWSTONE   N/A    -16 -20  82 CALM      30.02R
W YELLOWSTONE  NOT AVBL

$$
WYZ002>013-054>058-071-098>099-071700-
NORTHERN WYOMING

CITY           SKY/WX    TMP DP  RH WIND       PRES   REMARKS
JACKSON        FAIR      -8 -11  84 N5        30.11R WCI -19
CODY           CLOUDY    -2  -5  87 S3        30.25R
GREYBULL       CLOUDY     8  -3  61 NW7       30.32R WCI  -3
WORLAND        CLOUDY     7  -1  70 NW10      30.31R WCI  -8
SHERIDAN       CLOUDY     2  -6  69 NW5       30.36R WCI  -8
BUFFALO        CLOUDY    -2  -9  72 CALM      30.25R
GILLETTE       FAIR      -2  -7  79 NW12      30.30R WCI -20
HULETT         CLOUDY     0  -6  78 W5        30.29R HAZE    WCI -10
NEWCASTLE      FAIR       0  -8  71 NW20G26   30.29R WCI -22

$$
WYZ014>020-022>026-101>103-071700-
CENTRAL WYOMING

CITY           SKY/WX    TMP DP  RH WIND       PRES   REMARKS
BIG PINEY      FAIR      -2  -5  87 CALM      30.06R
PINEDALE       FAIR      -2  -6  84 CALM      30.06R FOG
DUBOIS         CLOUDY    -8 -15  71 NW14      30.03R WCI -28
LANDER         CLOUDY     5  -1  76 S3        30.18R
RIVERTON       CLOUDY     6   1  80 CALM      30.19R
CASPER         PTSUNNY   -4  -7  87 W3        30.21R
DOUGLAS        LGT SNOW   0  -5  79 NW6       30.25R WCI -12

$$
WYZ021-027>030-104>119-071700-
SOUTHERN WYOMING

CITY           SKY/WX    TMP DP  RH WIND       PRES   REMARKS
EVANSTON       PTSUNNY    3  -3  76 CALM      30.07R
KEMMERER         N/A      5   0  78 NW5       30.05R WCI  -4
FORT BRIDGER   CLOUDY     8   4  84 W5        30.10R WCI  -1
ROCK SPRINGS   LGT SNOW   3  -2  79 NE9       30.08R WCI -12
DIXON          CLOUDY     6   0  77 CALM      30.10R
RAWLINS        CLOUDY     2  -5  72 NW6       30.07R WCI  -9
SARATOGA       LGT SNOW   5   1  85 NW6       30.04R VSB 3/4 WCI  -6
LARAMIE        FAIR      -6 -10  83 CALM      29.99R
CHEYENNE       MIX PCPN   0  -7  72 N12       30.09R WCI -17
TORRINGTON     LGT SNOW   7  -1  70 NW12      30.27R WCI  -8
PINE BLUFFS    CLOUDY     5   0  78 NW16      30.18R WCI -14

$$



USA.gov is the U.S. government's official web portal to all federal, state and local government web resources and services.